Retour au catalogue

CZ-6A DEB

ActifPO
NORAD 61276·DEBRIS·🇨🇳 China

Lancé Aug 6, 2024 depuis Taiyuan Satellite Launch Center

Loading…

Prochains Passages (prochaines 24 heures)

TLE

FraisSource: Space-Track

Époque: Sep 13, 2026, 23:20 UTC

1 61276U 24140SM  26256.97290087  .00000880  00000-0  35397-3 0  9992
2 61276  89.0007 264.1856 0022439 264.5334  95.3300 14.27175867106675

Suivez CZ-6A DEB en temps réel avec AllMySat

Download on the App Store